Location: Castiglione Fibocchi
(43.5333°N, 11.7667°E)
Time: 09:33:40
(UTC+00:00)

Meteor 1-16 Rocket - Pass Details

Date: 15 August 2020
Orbit: 791 x 906 km, 81.2° (Epoch: 18 September)

Event Time Altitude Azimuth Distance (km) Brightness Sun altitude
Exits shadow 02:01:55 43° 199° (SSW) 1,151 4.4 -21.4°
Maximum altitude 02:03:49 81° 281° (W) 847 4.1 -21.1°
Drops below altitude 10° 02:09:27 10° 8° (N) 2,486 7.4 -20.4°
Sets 02:11:55 0° 10° (N) 3,444 8.3 -20.1°
